This is the latest recevied weather packets stored in our database for station/object N8DMH-13. If no packets are shown the sender has not sent any weather packets the latest 10 day(s).
| Time | Temp. | Humidity | Pressure | Rain* | Wind** | Luminosity | Snow |
|---|---|---|---|---|---|---|---|
| 1777744363 | 9.44° C | 32% | 1017.5 hPa | 0 mm | - | - | - |
| 1777743732 | 9.44° C | 33% | 1017.6 hPa | 0 mm | - | - | - |
| 1777743432 | 9.44° C | 33% | 1017.5 hPa | 0 mm | - | - | - |
| 1777743102 | 8.89° C | 35% | 1017.6 hPa | 0 mm | - | - | - |
| 1777742772 | 8.89° C | 34% | 1017.6 hPa | 0 mm | - | - | - |
| 1777742472 | 8.89° C | 32% | 1017.7 hPa | 0 mm | - | - | - |
| 1777742142 | 9.44° C | 33% | 1017.8 hPa | 0 mm | - | - | - |
| 1777741842 | 8.89° C | 37% | 1017.7 hPa | 0 mm | - | - | - |
| 1777741542 | 8.89° C | 34% | 1017.8 hPa | 0 mm | - | - | - |
| 1777741214 | 8.89° C | 36% | 1018 hPa | 0 mm | - | - | - |
| 1777740912 | 8.89° C | 36% | 1018 hPa | 0 mm | - | - | - |
| 1777740582 | 8.89° C | 38% | 1018.2 hPa | 0 mm | - | - | - |
| 1777740252 | 8.89° C | 38% | 1018.1 hPa | 0 mm | - | - | - |
| 1777739951 | 8.89° C | 38% | 1018.2 hPa | 0 mm | - | - | - |
| 1777739621 | 8.89° C | 39% | 1018.2 hPa | 0 mm | - | - | - |
| 1777739291 | 8.33° C | 40% | 1018.3 hPa | 0 mm | - | - | - |
| 1777738991 | 8.33° C | 40% | 1018.2 hPa | 0 mm | - | - | - |
| 1777738691 | 8.33° C | 40% | 1018.3 hPa | 0 mm | - | - | - |
| 1777738361 | 8.89° C | 39% | 1018.5 hPa | 0 mm | - | - | - |
| 1777738061 | 8.89° C | 40% | 1018.5 hPa | 0 mm | - | - | - |
| 1777737731 | 8.33° C | 38% | 1018.5 hPa | 0 mm | - | - | - |
| 1777737401 | 8.33° C | 38% | 1018.6 hPa | 0 mm | - | - | - |
| 1777737071 | 8.33° C | 41% | 1018.6 hPa | 0 mm | - | - | - |
| 1777736770 | 8.33° C | 40% | 1018.7 hPa | 0 mm | - | - | - |
| 1777736440 | 7.78° C | 41% | 1018.6 hPa | 0 mm | - | - | - |
* Rain latest hour (hover to see other rain measurements)
** Current wind speed in m/s (hover to see current wind gust speed)